Weather History for Cumberland, MD

Change the Weather History Date:

Wednesday, February 20, 2013

  Actual Average (KMRB) Record (KMRB)
Temperature  
Mean Temperature 28 °F 35 °F  
Max Temperature 32 °F 44 °F 70 °F (1939)
Min Temperature 23 °F 25 °F 0 °F (1979)
Degree Days  
Heating Degree Days 38 30  
Month to date heating degree days 640  
Since 1 July heating degree days 3723  
Cooling Degree Days 0 0  
Month to date cooling degree days 0  
Year to date cooling degree days 0  
Moisture  
Dew Point 14 °F    
Average Humidity 58    
Maximum Humidity 69    
Minimum Humidity 51    
Precipitation  
Precipitation 0.00 in 0.08 in 2.25 in (1927)
Month to date precipitation 1.64  
Year to date precipitation 4.08  
Sea Level Pressure  
Sea Level Pressure 30.08 in    
Wind  
Wind Speed 11 mph (West)    
Max Wind Speed 22 mph    
Max Gust Speed 37 mph    
Visibility 10 miles    
Events      
T = Trace of Precipitation, MM = Missing Value Source: NWS Daily Summary

Daily Weather History Graph

Daily Weather History Graph

Search for Another Location

Airport:

Trip Planner

Search our weather history database for the weather conditions in past years. The results will help you decide how hot, cold, wet, or windy it might be!

Date:

Astronomy

Feb. 20, 2013 Rise Set
Actual Time 7:00 AM EST 5:57 PM EST
Civil Twilight 6:33 AM EST 6:24 PM EST
Nautical Twilight 6:01 AM EST 6:56 PM EST
Astronomical Twilight 5:30 AM EST 7:27 PM EST
Moon 1:17 PM EST (2/20) 3:18 AM EST (2/20)
Length of Visible Light 11h 51m
Length of Day
10h 57m
Waxing Gibbous, 76% of the Moon is Illuminated
Feb 20
Waxing Gibbous
Feb 25
Full
Mar 4
Last Quarter
Mar 11
New
Mar 19
First Quarter

Hourly Weather History & Observations

Time (EST) Temp. Windchill Dew Point Humidity Pressure Visibility Wind Dir Wind Speed Gust Speed Precip Events Conditions
12:06 AM 32.0 °F 21.2 °F 21.2 °F 64% 29.94 in 10.0 mi West 16.1 mph 23.0 mph N/A   Mostly Cloudy
12:26 AM 32.0 °F 24.8 °F 19.4 °F 60% 29.94 in 10.0 mi WNW 8.1 mph 19.6 mph N/A   Mostly Cloudy
12:46 AM 32.0 °F 25.6 °F 19.4 °F 60% 29.94 in 10.0 mi West 6.9 mph 19.6 mph N/A   Overcast
1:06 AM 32.0 °F 22.5 °F 19.4 °F 60% 29.94 in 10.0 mi West 12.7 mph 27.6 mph N/A   Mostly Cloudy
1:26 AM 30.2 °F 21.3 °F 19.4 °F 64% 29.95 in 10.0 mi West 10.4 mph 23.0 mph N/A   Mostly Cloudy
1:46 AM 30.2 °F 19.3 °F 19.4 °F 64% 29.95 in 10.0 mi WNW 15.0 mph 20.7 mph N/A   Mostly Cloudy
2:06 AM 30.2 °F 25.4 °F 19.4 °F 64% 29.95 in 10.0 mi WSW 4.6 mph - N/A   Mostly Cloudy
2:26 AM 30.2 °F 19.8 °F 17.6 °F 60% 29.95 in 10.0 mi West 13.8 mph 20.7 mph N/A   Overcast
2:46 AM 30.2 °F 20.2 °F 15.8 °F 55% 29.95 in 10.0 mi WSW 12.7 mph 33.4 mph N/A   Mostly Cloudy
3:06 AM 28.4 °F 19.1 °F 14.0 °F 55% 29.95 in 10.0 mi West 10.4 mph 20.7 mph N/A   Scattered Clouds
3:27 AM 28.4 °F 17.5 °F 14.0 °F 55% 29.95 in 10.0 mi West 13.8 mph 20.7 mph N/A   Scattered Clouds
3:47 AM 28.4 °F 15.8 °F 14.0 °F 55% 29.97 in 10.0 mi WNW 18.4 mph 26.5 mph N/A   Scattered Clouds
4:07 AM 28.4 °F 18.0 °F 15.8 °F 59% 29.97 in 10.0 mi West 12.7 mph 28.8 mph N/A   Scattered Clouds
4:27 AM 28.4 °F 17.5 °F 14.0 °F 55% 29.98 in 10.0 mi WNW 13.8 mph 25.3 mph N/A   Mostly Cloudy
4:47 AM 28.4 °F 17.5 °F 14.0 °F 55% 29.98 in 10.0 mi WSW 13.8 mph 21.9 mph N/A   Overcast
5:07 AM 28.4 °F 17.5 °F 14.0 °F 55% 29.99 in 10.0 mi West 13.8 mph 24.2 mph N/A   Mostly Cloudy
5:27 AM 28.4 °F 16.6 °F 15.8 °F 59% 30.01 in 10.0 mi West 16.1 mph 33.4 mph N/A   Mostly Cloudy
5:47 AM 26.6 °F 19.1 °F 14.0 °F 59% 30.02 in 10.0 mi WNW 6.9 mph 20.7 mph N/A   Mostly Cloudy
6:07 AM 26.6 °F 16.2 °F 14.0 °F 59% 30.02 in 10.0 mi West 11.5 mph 34.5 mph N/A   Scattered Clouds
6:27 AM 26.6 °F 13.8 °F 14.0 °F 59% 30.02 in 10.0 mi West 17.3 mph 24.2 mph N/A   Mostly Cloudy
6:47 AM 26.6 °F 20.0 °F 14.0 °F 59% 30.02 in 10.0 mi West 5.8 mph 19.6 mph N/A   Overcast
7:07 AM 26.6 °F 21.2 °F 14.0 °F 59% 30.03 in 10.0 mi West 4.6 mph 11.5 mph N/A   Mostly Cloudy
7:27 AM 26.6 °F 22.6 °F 15.8 °F 64% 30.05 in 5.0 mi West 3.5 mph 23.0 mph N/A   Mostly Cloudy
7:47 AM 26.6 °F 16.2 °F 17.6 °F 69% 30.05 in 10.0 mi WNW 11.5 mph 18.4 mph N/A   Mostly Cloudy
8:07 AM 26.6 °F 17.5 °F 15.8 °F 64% 30.06 in 10.0 mi West 9.2 mph 16.1 mph N/A   Mostly Cloudy
8:27 AM 26.6 °F 15.7 °F 15.8 °F 64% 30.06 in 7.0 mi West 12.7 mph 18.4 mph N/A   Overcast
8:47 AM 26.6 °F 18.2 °F 15.8 °F 64% 30.06 in 7.0 mi West 8.1 mph - N/A   Overcast
9:07 AM 26.6 °F 19.1 °F 17.6 °F 69% 30.05 in 7.0 mi West 6.9 mph - N/A   Overcast
9:27 AM 26.6 °F 19.1 °F 17.6 °F 69% 30.05 in 7.0 mi West 6.9 mph - N/A   Mostly Cloudy
9:47 AM 26.6 °F 16.2 °F 15.8 °F 64% 30.05 in 10.0 mi West 11.5 mph 16.1 mph N/A   Mostly Cloudy
10:07 AM 26.6 °F 17.5 °F 14.0 °F 59% 30.05 in 10.0 mi West 9.2 mph - N/A   Scattered Clouds
10:27 AM 26.6 °F 15.7 °F 14.0 °F 59% 30.06 in 10.0 mi West 12.7 mph 23.0 mph N/A   Scattered Clouds
10:47 AM 28.4 °F 19.1 °F 14.0 °F 55% 30.07 in 10.0 mi WSW 10.4 mph 25.3 mph N/A   Scattered Clouds
11:07 AM 28.4 °F 16.6 °F 14.0 °F 55% 30.06 in 10.0 mi WNW 16.1 mph 23.0 mph N/A   Scattered Clouds
11:27 AM 28.4 °F 19.7 °F 14.0 °F 55% 30.06 in 10.0 mi West 9.2 mph 17.3 mph N/A   Scattered Clouds
11:48 AM 28.4 °F 19.7 °F 14.0 °F 55% 30.07 in 10.0 mi West 9.2 mph 18.4 mph N/A   Scattered Clouds
12:08 PM 28.4 °F 19.7 °F 14.0 °F 55% 30.07 in 10.0 mi West 9.2 mph 17.3 mph N/A   Scattered Clouds
12:28 PM 28.4 °F 18.0 °F 14.0 °F 55% 30.07 in 10.0 mi West 12.7 mph 28.8 mph N/A   Scattered Clouds
12:48 PM 28.4 °F 18.0 °F 14.0 °F 55% 30.06 in 10.0 mi WSW 12.7 mph 20.7 mph N/A   Scattered Clouds
1:08 PM 28.4 °F 17.0 °F 15.8 °F 59% 30.07 in 5.0 mi West 15.0 mph 23.0 mph N/A   Mostly Cloudy
1:28 PM 28.4 °F 15.1 °F 14.0 °F 55% 30.07 in 10.0 mi West 20.7 mph 26.5 mph N/A   Scattered Clouds
1:48 PM 28.4 °F 16.6 °F 12.2 °F 51% 30.07 in 10.0 mi West 16.1 mph 26.5 mph N/A   Scattered Clouds
2:08 PM 28.4 °F 19.1 °F 14.0 °F 55% 30.08 in 10.0 mi WNW 10.4 mph 20.7 mph N/A   Scattered Clouds
2:28 PM 28.4 °F 17.5 °F 14.0 °F 55% 30.09 in 10.0 mi West 13.8 mph 32.2 mph N/A   Scattered Clouds
2:48 PM 28.4 °F 14.7 °F 12.2 °F 51% 30.09 in 10.0 mi West 21.9 mph 36.8 mph N/A   Scattered Clouds
3:08 PM 28.4 °F 19.1 °F 14.0 °F 55% 30.10 in 10.0 mi West 10.4 mph 16.1 mph N/A   Scattered Clouds
3:28 PM 28.4 °F 21.2 °F 14.0 °F 55% 30.11 in 10.0 mi West 6.9 mph - N/A   Scattered Clouds
3:48 PM 28.4 °F 15.1 °F 12.2 °F 51% 30.13 in 10.0 mi West 20.7 mph 28.8 mph N/A   Scattered Clouds
4:08 PM 26.6 °F 14.7 °F 12.2 °F 55% 30.13 in 10.0 mi West 15.0 mph 27.6 mph N/A   Scattered Clouds
4:28 PM 26.6 °F 22.6 °F 12.2 °F 55% 30.15 in 10.0 mi NNW 3.5 mph 24.2 mph N/A   Scattered Clouds
4:48 PM 26.6 °F 22.6 °F 12.2 °F 55% 30.15 in 10.0 mi WSW 3.5 mph - N/A   Mostly Cloudy
5:08 PM 26.6 °F 17.5 °F 12.2 °F 55% 30.17 in 10.0 mi WSW 9.2 mph - N/A   Overcast
5:28 PM 26.6 °F 17.5 °F 10.4 °F 51% 30.17 in 10.0 mi West 9.2 mph 19.6 mph N/A   Mostly Cloudy
5:48 PM 26.6 °F 16.2 °F 10.4 °F 51% 30.17 in 10.0 mi West 11.5 mph 18.4 mph N/A   Mostly Cloudy
6:08 PM 24.8 °F 16.9 °F 10.4 °F 54% 30.19 in 10.0 mi West 6.9 mph 21.9 mph N/A   Mostly Cloudy
6:28 PM 24.8 °F 17.9 °F 10.4 °F 54% 30.20 in 10.0 mi NW 5.8 mph - N/A   Mostly Cloudy
6:48 PM 24.8 °F 16.1 °F 12.2 °F 59% 30.20 in 10.0 mi WNW 8.1 mph 17.3 mph N/A   Mostly Cloudy
7:08 PM 23.0 °F 12.4 °F 10.4 °F 59% 30.20 in 10.0 mi WNW 10.4 mph 26.5 mph N/A   Scattered Clouds
7:28 PM 23.0 °F 11.7 °F 10.4 °F 59% 30.19 in 10.0 mi WNW 11.5 mph 24.2 mph N/A   Clear
7:48 PM 23.0 °F 12.4 °F 10.4 °F 59% 30.19 in 10.0 mi West 10.4 mph 19.6 mph N/A   Clear
8:08 PM 23.0 °F 13.1 °F 10.4 °F 59% 30.20 in 10.0 mi West 9.2 mph 16.1 mph N/A   Mostly Cloudy
8:29 PM 23.0 °F 12.4 °F 10.4 °F 59% 30.20 in 10.0 mi West 10.4 mph 17.3 mph N/A   Overcast
8:49 PM 23.0 °F 17.0 °F 10.4 °F 59% 30.21 in 10.0 mi West 4.6 mph - N/A   Overcast
9:09 PM 23.0 °F 13.1 °F 10.4 °F 59% 30.21 in 10.0 mi West 9.2 mph 25.3 mph N/A   Overcast
9:29 PM 23.0 °F 15.8 °F 10.4 °F 59% 30.22 in 10.0 mi West 5.8 mph 19.6 mph N/A   Overcast
9:49 PM 23.0 °F 13.1 °F 10.4 °F 59% 30.22 in 10.0 mi West 9.2 mph 19.6 mph N/A   Overcast
10:09 PM 23.0 °F 12.4 °F 10.4 °F 59% 30.22 in 10.0 mi West 10.4 mph 18.4 mph N/A   Overcast
10:29 PM 23.0 °F 12.4 °F 10.4 °F 59% 30.22 in 10.0 mi West 10.4 mph 20.7 mph N/A   Mostly Cloudy
10:49 PM 23.0 °F 13.1 °F 10.4 °F 59% 30.22 in 10.0 mi WNW 9.2 mph 18.4 mph N/A   Mostly Cloudy
11:09 PM 23.0 °F 11.7 °F 10.4 °F 59% 30.22 in 10.0 mi West 11.5 mph 19.6 mph N/A   Mostly Cloudy
11:29 PM 23.0 °F 14.7 °F 10.4 °F 59% 30.21 in 10.0 mi NW 6.9 mph 18.4 mph N/A   Mostly Cloudy
11:49 PM 23.0 °F 13.9 °F 10.4 °F 59% 30.20 in 10.0 mi West 8.1 mph 18.4 mph N/A   Mostly Cloudy